Location: Lake Mineral Wells State Park
(32.8157°N, 98.0290°W)
Time: 02:58:26
(UTC-05:00)

Envisat - Visible Passes

Search period start: 23 October 2019 00:00
Search period end: 02 November 2019 00:00
Orbit: 764 x 766 km, 98.1° (Epoch: 23 October)

Date Brightness Start Highest point End Pass type
(mag) Time Alt. Az. Time Alt. Az. Time Alt. Az.
23 Oct 5.3 20:37:44 10° SSW 20:41:50 25° W 20:45:57 10° NW visible
24 Oct 6.3 07:13:02 10° ENE 07:15:48 15° E 07:18:33 10° SE visible
24 Oct 3.6 19:59:57 10° S 20:04:56 60° W 20:09:58 10° NNW visible
25 Oct 3.1 19:23:17 10° SSE 19:28:14 56° ENE 19:33:12 10° N visible
25 Oct 6.1 21:05:15 10° WSW 21:07:31 13° W 21:09:48 10° WNW visible
26 Oct 4.8 20:26:01 10° SSW 20:30:30 32° W 20:35:02 10° NW visible
27 Oct 6.7 07:03:12 10° ENE 07:04:26 11° E 07:05:39 10° ESE visible
27 Oct 3.1 19:48:37 10° S 19:53:40 79° WSW 19:58:46 10° NNW visible
28 Oct 3.3 19:12:16 10° SE 19:17:02 43° ENE 19:21:47 10° N visible
28 Oct 5.8 20:52:54 10° SW 20:56:10 17° W 20:59:27 10° NW visible
29 Oct 4.3 20:14:26 10° S 20:19:12 41° W 20:23:59 10° NNW visible
30 Oct 2.9 19:37:22 10° SSE 19:42:25 80° ENE 19:47:31 10° N visible
31 Oct 3.6 19:01:19 10° SE 19:05:50 33° ENE 19:10:20 10° N visible
31 Oct 5.4 20:40:55 10° SW 20:44:49 22° W 20:48:45 10° NW visible
01 Nov 6.2 07:15:41 10° NE 07:18:48 16° E 07:21:55 10° SE visible
01 Nov 3.8 20:02:58 10° S 20:07:55 54° W 20:12:53 10° NNW visible
